RH
4 4 4 6 26 32 47 22 21 21 17 23 22 24 24 23 26 28 29 22 17 18 16 11 10 13 16 17 14 8 4 3 4 5 5 5 5 6 8 10 12 14 15
6 7 6 6 10 14 36 35 36 36 20 15 20 24 21 20 20 22 22 27 30 25 17 18 16 11 10 15 18 17 11 6 4 4 4 5 5 6 7 8 10 12 15
8 8 8 8 7 9 13 22 38 48 26 25 24 19 20 22 22 19 18 18 18 20 26 28 18 17 16 10 11 16 18 16 8 5 4 4 4 6 6 7 9 10 13
10 10 10 10 9 9 10 12 16 21 40 42 26 18 17 18 19 21 21 21 20 18 17 18 21 24 21 16 15 10 12 16 18 14 7 5 5 6 8 8 9 10 11
11 11 11 11 11 11 11 10 11 13 19 33 37 34 22 20 19 19 20 22 23 23 21 20 19 19 18 17 19 16 14 10 11 16 18 14 9 8 8 9 11 11 11
10 10 10 10 10 10 10 10 10 10 11 17 25 42 43 37 22 22 24 18 19 21 19 18 18 20 19 19 17 14 16 16 13 10 11 16 18 16 12 11 11 12 13
9 9 9 9 10 10 10 10 10 10 10 11 13 21 29 47 52 36 27 28 30 24 17 13 13 14 16 18 19 18 17 13 16 16 12 9 12 16 18 17 16 16 16
8 8 8 9 9 9 9 9 9 9 9 9 10 11 18 22 30 34 39 33 27 28 32 32 26 18 13 13 12 17 19 17 14 12 15 16 11 9 12 16 18 18 18
8 8 9 9 9 9 9 9 9 9 9 9 9 9 10 10 12 27 26 28 22 20 22 19 21 26 28 28 24 20 17 16 20 17 15 16 18 17 11 8 10 14 18
10 12 12 11 11 10 10 10 10 9 9 9 9 10 10 10 9 9 10 13 12 15 14 18 16 12 13 22 26 35 38 30 21 20 20 18 18 21 23 18 11 8 8
20 17 16 16 14 13 13 14 16 15 13 12 12 12 14 15 14 11 12 11 14 24 20 18 16 14 11 10 15 20 24 38 38 24 18 21 22 20 22 27 26 24 20
27 24 22 21 17 17 17 18 19 19 19 18 18 18 18 18 18 18 16 16 13 22 26 34 31 26 20 12 10 11 18 27 31 40 36 21 19 22 22 21 25 27 30
29 26 22 19 16 17 18 17 14 12 10 8 6 6 7 8 10 12 15 18 25 28 28 31 32 43 44 31 22 13 11 13 28 35 40 42 37 21 16 23 26 27 26
17 12 8 7 8 8 8 6 5 4 4 4 4 4 4 4 4 4 4 4 4 7 21 28 34 46 50 44 41 38 22 14 13 18 33 38 42 44 40 29 15 17 25
5 4 4 5 5 5 4 4 4 4 4 4 4 5 5 5 6 6 6 6 6 7 7 6 7 17 27 32 38 39 45 39 22 15 18 26 34 40 44 41 37 30 25
4 4 4 4 4 4 4 4 5 5 6 8 9 9 9 9 9 10 10 10 11 11 10 10 10 9 9 11 13 22 27 32 36 40 28 18 19 22 33 40 41 40 36
6 7 7 8 8 8 9 10 10 10 10 10 9 8 9 9 10 12 12 12 13 14 14 14 14 14 14 13 11 12 14 13 19 26 31 43 40 21 18 24 36 44 41
15 15 14 14 14 13 12 13 13 13 13 13 13 13 13 14 15 15 15 17 18 18 18 19 20 20 20 20 19 18 15 14 14 18 31 28 34 50 44 24 20 29 45
18 17 16 15 16 16 16 16 16 16 15 15 16 16 16 17 18 18 19 20 23 24 25 25 26 27 27 28 28 27 26 25 21 19 18 27 33 34 43 56 44 25 22
18 18 18 19 21 22 23 25 24 24 22 20 19 18 18 17 17 17 17 18 20 22 25 28 30 31 31 31 30 29 29 30 31 30 28 24 22 28 35 40 61 63 51
20 21 23 27 29 28 26 24 22 20 19 18 18 16 15 14 14 13 13 14 16 17 20 24 26 27 27 26 24 23 22 22 21 22 24 30 32 30 33 40 38 49 73
26 28 32 30 26 23 22 20 18 14 10 7 6 6 6 6 6 6 6 7 9 11 14 16 16 15 14 12 12 11 10 9 8 8 8 9 12 42 25 40 53 43 54
35 30 27 26 22 16 10 7 6 7 16 26 29 32 30 26 22 25 28 24 20 13 7 7 7 7 8 18 28 29 26 23 24 26 21 24 23 18 14 18 79 51 44
27 23 15 9 7 6 12 25 28 29 31 33 31 30 29 26 22 12 14 28 35 35 36 37 36 37 39 36 34 34 30 22 16 15 17 18 28 30 38 43 41 50 43
12 8 6 10 26 28 22 17 12 10 8 8 20 30 25 14 11 12 9 12 20 33 36 34 37 38 35 25 15 12 10 9 10 10 9 10 9 10 21 43 90 100 96
8 22 29 17 12 10 9 8 6 5 5 6 7 7 6 6 6 6 5 6 10 40 42 43 41 33 27 18 17 16 13 15 17 16 13 8 6 6 20 48 59 80 84
Wind_Speed
4 4 3 2 3 5 5 6 11 14 13 12 11 11 10 10 9 7 5 4 6 9 8 7 6 6 5 4 3 4 4 7 8 7 7 6 6 6 6 5 5 4 4
5 5 5 4 3 5 7 6 6 7 14 16 16 15 15 13 12 11 10 9 7 6 8 10 9 8 8 8 7 6 5 5 6 9 9 8 8 8 8 8 7 7 6
7 7 6 7 7 7 7 8 8 8 7 8 14 19 19 18 17 16 14 13 11 11 10 9 10 13 12 11 11 10 9 7 7 8 10 10 11 11 10 10 11 10 10
7 6 7 8 9 9 9 8 10 11 10 10 10 10 11 16 21 22 20 19 18 16 15 14 14 13 13 15 15 14 14 12 10 10 10 12 12 13 13 13 13 12 13
9 9 8 9 10 11 11 11 11 12 14 14 14 14 14 13 13 13 16 22 23 22 21 20 20 18 17 16 16 17 18 17 16 15 13 13 14 14 14 15 15 15 15
12 12 12 12 14 14 15 15 15 15 15 16 17 17 18 17 17 16 15 15 16 19 21 23 24 24 23 22 21 20 20 20 20 20 19 18 17 17 16 17 17 18 18
15 16 17 18 18 19 20 20 20 20 19 19 20 20 19 19 20 20 19 18 18 18 18 19 21 23 25 26 26 26 25 24 24 24 23 23 23 22 21 21 21 21 21
20 21 23 24 24 24 24 25 26 25 25 25 25 25 24 24 23 23 21 20 21 21 21 21 22 23 23 23 26 29 29 29 28 28 28 28 27 27 27 27 26 25 26
25 27 28 28 28 29 30 30 31 31 30 30 30 30 29 28 28 29 28 28 26 25 25 25 24 24 25 26 26 24 25 29 32 32 32 31 32 31 31 31 31 30 30
29 30 31 32 32 33 33 33 33 34 34 33 33 33 33 33 32 31 32 32 32 30 29 29 29 29 29 28 28 28 27 26 27 30 34 35 35 35 34 33 33 32 32
32 32 32 33 35 35 35 35 34 35 35 36 35 35 35 35 35 36 35 35 35 35 35 33 33 33 33 33 32 31 31 30 28 28 29 33 36 36 36 36 36 35 34
36 36 37 37 36 36 35 35 34 34 33 33 33 34 34 35 35 36 37 38 37 37 38 38 38 38 36 37 37 36 35 34 33 32 30 30 33 36 37 37 37 38 38
38 38 38 37 35 34 33 32 30 28 27 26 25 25 27 28 29 31 34 36 38 39 40 41 42 41 40 40 40 40 39 39 38 36 35 33 32 33 34 38 41 41 40
33 30 29 30 29 27 27 26 25 24 25 26 26 27 27 28 29 29 30 30 32 33 35 39 42 44 44 44 44 43 42 42 42 42 40 39 37 36 35 35 35 37 39
27 26 25 25 24 24 25 26 28 29 30 31 32 33 33 33 34 34 34 35 35 36 36 36 37 38 40 43 46 47 46 45 45 45 45 44 44 42 41 40 38 37 37
27 27 27 28 29 30 31 31 32 34 34 35 35 36 38 38 39 39 40 40 39 40 41 41 41 41 42 43 43 42 42 44 47 48 48 49 49 48 47 46 44 42 41
29 31 32 33 34 35 36 36 37 38 39 40 41 43 44 44 45 46 47 46 46 47 48 48 48 48 48 48 47 47 47 46 45 45 48 51 51 52 52 50 49 48 46
31 32 34 36 36 37 39 40 41 43 44 45 46 48 49 50 50 50 51 51 51 52 52 52 53 52 53 53 52 52 52 52 52 50 48 48 50 53 54 54 53 52 51
32 34 35 37 39 41 42 44 46 47 49 50 51 52 53 54 55 55 56 56 57 57 57 58 58 58 58 57 57 56 56 56 55 55 55 55 53 52 54 57 56 55 56
36 37 39 41 43 45 47 49 49 49 50 51 53 55 56 57 58 58 58 58 58 58 57 56 57 57 57 57 56 56 56 57 58 58 59 60 59 58 56 56 58 59 58
40 42 44 46 47 46 46 46 48 50 52 54 56 57 59 60 62 62 62 62 62 61 59 57 56 56 56 58 59 59 58 58 59 60 61 61 62 63 62 61 61 61 61
45 46 46 44 44 45 48 51 54 55 56 56 57 57 57 57 57 59 60 63 64 64 63 60 58 57 57 59 61 63 63 63 65 65 66 66 65 64 66 66 70 65 63
39 39 41 44 47 49 49 49 50 49 43 41 39 39 40 42 42 43 43 42 43 46 51 57 60 59 56 57 57 58 58 57 61 60 60 63 65 70 72 73 63 66 68
40 43 45 43 44 43 38 36 38 42 44 44 44 43 44 46 45 43 43 43 44 44 43 44 45 48 52 52 55 58 59 58 59 59 64 67 73 74 73 71 75 79 75
39 39 38 34 30 33 35 37 41 44 47 48 49 49 50 49 47 46 44 43 40 42 43 44 45 48 49 50 52 55 54 54 57 59 61 65 73 79 85 84 64 57 64
31 25 27 28 31 35 38 42 44 46 49 52 51 49 49 48 45 43 42 43 42 41 43 43 44 45 48 51 55 56 56 56 58 62 66 68 73 79 85 84 86 81 73
Wind_Direction
217 238 235 226 241 259 263 271 262 255 253 251 251 254 254 254 258 258 255 246 238 237 240 241 247 262 273 276 258 267 268 262 253 241 239 228 234 226 217 218 215 204 191
240 249 258 261 259 262 267 282 282 281 259 256 253 253 257 257 258 259 259 260 258 258 255 252 251 253 257 264 271 271 261 263 258 254 245 240 234 233 232 230 233 234 231
247 248 257 267 270 277 278 283 290 279 283 281 269 262 261 261 263 262 263 261 260 264 262 263 264 261 261 262 260 262 266 259 256 250 251 243 241 237 234 237 236 235 237
254 259 261 268 272 274 279 281 287 295 287 284 281 284 283 272 265 263 263 264 263 261 264 264 263 264 265 264 264 262 259 259 259 255 250 248 242 240 237 236 240 241 241
270 273 277 280 283 286 287 289 287 286 293 290 286 283 283 283 282 280 272 265 265 265 263 264 265 266 265 264 264 264 262 261 258 257 257 255 253 251 246 243 244 246 246
278 282 284 283 284 284 285 286 286 286 288 289 292 288 284 282 284 285 281 276 271 267 267 264 264 265 265 265 265 266 265 262 261 260 257 257 257 257 254 252 250 251 253
279 280 281 280 281 284 286 285 286 288 287 285 285 285 286 285 283 282 280 281 280 275 272 273 270 267 264 262 263 265 266 266 264 261 259 256 254 254 255 253 253 252 253
279 281 282 283 281 281 280 281 282 283 284 284 284 284 284 285 285 280 278 279 280 282 280 275 273 274 272 271 267 263 263 264 262 262 262 260 257 254 253 253 253 254 255
279 280 280 281 281 281 282 281 280 281 280 280 280 280 279 279 278 277 278 278 276 274 274 275 277 276 276 275 273 271 270 268 265 264 262 260 258 256 254 254 254 253 254
278 280 280 280 280 280 280 280 279 278 278 278 279 280 279 277 275 273 274 276 276 273 272 271 270 272 273 274 274 275 275 273 271 267 265 265 264 261 257 255 254 254 255
277 278 278 279 279 279 279 279 278 278 277 275 274 275 276 276 277 276 275 272 271 272 271 269 270 268 268 269 269 271 272 272 272 272 270 266 264 264 263 261 260 259 259
273 272 274 277 277 277 278 278 278 278 277 276 275 273 272 272 271 271 271 271 268 267 270 270 270 269 268 266 267 266 268 269 268 269 269 269 267 264 263 263 263 262 262
273 270 271 273 274 275 276 277 276 275 276 277 279 279 278 279 278 277 275 272 270 268 266 267 268 267 267 267 266 266 265 266 267 267 265 265 266 267 265 263 263 263 263
272 272 272 272 273 273 273 274 277 278 278 280 280 281 281 281 280 279 279 278 279 278 274 271 268 268 269 268 266 265 265 265 265 264 265 266 265 264 265 266 265 265 265
271 274 273 272 271 271 271 273 274 277 279 280 281 281 281 280 280 279 278 277 277 277 276 275 274 275 274 273 272 269 267 265 265 265 265 263 264 265 265 264 264 264 264
272 275 276 276 277 278 278 278 278 279 279 280 280 281 282 282 282 281 279 278 277 275 275 274 274 273 273 274 275 275 273 271 268 266 266 266 265 263 263 265 265 263 262
277 280 281 282 282 282 282 281 282 282 282 281 281 281 281 282 282 281 280 279 277 276 275 274 273 272 271 271 270 270 271 272 271 270 266 265 267 268 265 262 263 265 264
278 282 284 286 286 286 285 284 284 283 282 282 283 283 284 284 282 280 278 275 273 273 272 272 272 272 272 272 271 270 269 269 270 271 269 268 266 264 266 266 264 262 263
284 285 285 285 284 284 283 283 283 283 283 283 284 283 282 281 279 278 277 276 274 272 271 270 270 270 270 269 268 269 270 270 270 270 271 270 269 266 265 263 264 264 263
280 281 281 282 282 282 283 283 284 284 285 284 283 283 282 281 280 279 277 276 275 274 271 270 269 269 269 270 269 267 267 268 268 269 268 268 268 268 266 265 264 262 262
281 282 283 284 285 286 286 285 284 284 283 283 282 282 281 281 280 279 278 276 275 274 272 270 269 267 267 268 268 268 267 266 267 268 268 269 268 266 266 266 263 263 260
282 285 288 288 286 285 285 286 286 287 286 285 285 284 282 281 280 278 276 275 274 274 274 273 272 271 270 270 269 269 269 268 267 266 265 265 264 261 265 265 260 260 260
285 284 284 285 288 290 291 290 289 290 290 291 288 287 286 285 287 285 281 279 279 277 274 273 272 272 271 270 270 269 269 267 266 267 266 265 265 265 264 262 258 258 258
285 288 291 291 290 291 291 292 293 293 292 292 287 284 285 288 288 287 286 284 275 274 275 276 272 273 274 273 272 273 271 270 270 267 267 267 266 264 262 261 258 257 257
289 288 288 289 288 292 297 298 298 298 297 296 291 286 288 290 292 289 288 289 290 285 282 280 280 281 281 279 275 275 271 271 272 274 272 274 271 267 262 255 250 246 256
286 284 287 292 297 299 298 298 299 300 297 293 290 289 289 290 289 294 290 287 285 283 280 279 279 280 280 278 278 277 276 276 276 278 279 278 276 272 264 256 247 248 251